Rutherfordton, NC

7:36 PM EDT on June 23, 2017 (GMT -0400)
Rutherford County-Marchman

Weather History for KFQD - June, 2013

Change the Weather History Date:

Sunday, June 9, 2013

  Actual Average (KAVL) Record (KAVL)
Temperature  
Mean Temperature 73 °F -  
Max Temperature 82 °F 80 °F 93 °F (2008)
Min Temperature 64 °F 57 °F 46 °F (1912)
Cooling Degree Days 8    
Growing Degree Days 23 (Base 50)    
Moisture  
Dew Point 67 °F    
Average Humidity 90    
Maximum Humidity 99    
Minimum Humidity 63    
Precipitation  
Precipitation 0.23 in - - ()
Sea Level Pressure  
Sea Level Pressure 30.13 in    
Wind  
Wind Speed 3 mph (SSE)    
Max Wind Speed 13 mph    
Max Gust Speed 20 mph    
Visibility 8 miles    
Events Rain , Thunderstorm    
Averages and records for this station are not official NWS values.
T = Trace of Precipitation, MM = Missing Value Source: NWS Daily Summary

Daily Weather History Graph

Daily Weather History Graph

Search for Another Location

Airport or City:

Trip Planner

Search our weather history database for the weather conditions in past years. The results will help you decide how hot, cold, wet, or windy it might be!

Date:

Astronomy

Jun. 09, 2013 Rise Set
Actual Time 6:12 AM EDT 8:42 PM EDT
Civil Twilight 5:42 AM EDT 9:11 PM EDT
Nautical Twilight 5:05 AM EDT 9:48 PM EDT
Astronomical Twilight 4:25 AM EDT 10:29 PM EDT
Moon 7:05 AM EDT (6/9) 9:30 PM EDT (6/9)
Length of Visible Light 15h 29m
Length of Day
14h 29m
New Moon, 1% of the Moon is Illuminated
Jun 9
New Moon
Jun 16
First Quarter
Jun 23
Full
Jun 30
Last Quarter
Jul 8
New

Hourly Weather History & Observations

Time (EDT) Temp. Heat Index Dew Point Humidity Pressure Visibility Wind Dir Wind Speed Gust Speed Precip Events Conditions
12:15 AM 71.8 °F - 66.9 °F 85% 30.12 in 10.0 mi Calm Calm - N/A   Mostly Cloudy
12:35 AM 71.6 °F - 66.7 °F 85% 30.12 in 10.0 mi Calm Calm - N/A   Clear
12:55 AM 69.3 °F - 66.7 °F 92% 30.12 in 10.0 mi SSW 12.7 mph - N/A   Clear
1:15 AM 70.0 °F - 66.6 °F 89% 30.12 in 10.0 mi SSW 12.7 mph - N/A   Clear
1:35 AM 69.4 °F - 66.6 °F 91% 30.12 in 10.0 mi SSW 9.2 mph - N/A   Clear
1:55 AM 68.9 °F - 66.6 °F 92% 30.12 in 10.0 mi South 6.9 mph - N/A   Clear
2:15 AM 69.6 °F - 66.6 °F 90% 30.12 in 10.0 mi Calm Calm - N/A   Clear
2:35 AM 69.4 °F - 66.4 °F 90% 30.12 in 10.0 mi Calm Calm - N/A   Clear
2:55 AM 67.3 °F - 65.8 °F 95% 30.12 in 7.0 mi Calm Calm - N/A   Clear
3:15 AM 66.9 °F - 65.8 °F 96% 30.11 in 7.0 mi Calm Calm - N/A   Mostly Cloudy
3:35 AM 67.6 °F - 66.2 °F 95% 30.11 in 7.0 mi NNE 3.5 mph - N/A   Mostly Cloudy
3:55 AM 66.9 °F - 65.5 °F 95% 30.12 in 7.0 mi Calm Calm - N/A   Mostly Cloudy
4:15 AM 65.8 °F - 65.3 °F 98% 30.12 in 4.0 mi SSW 8.1 mph - N/A   Mostly Cloudy
4:35 AM 65.7 °F - 65.1 °F 98% 30.13 in 4.0 mi SSW 6.9 mph - N/A   Mostly Cloudy
4:55 AM 65.8 °F - 65.3 °F 98% 30.13 in 5.0 mi Calm Calm - N/A   Mostly Cloudy
5:15 AM 66.4 °F - 65.5 °F 97% 30.13 in 5.0 mi Calm Calm - N/A   Scattered Clouds
5:35 AM 66.6 °F - 65.5 °F 96% 30.14 in 7.0 mi Calm Calm - N/A   Clear
5:55 AM 66.4 °F - 65.3 °F 96% 30.14 in 5.0 mi Calm Calm - N/A   Clear
6:15 AM 65.5 °F - 64.9 °F 98% 30.14 in 4.0 mi Calm Calm - N/A   Clear
6:35 AM 64.8 °F - 64.4 °F 99% 30.15 in 2.5 mi NNE 3.5 mph - N/A   Clear
6:55 AM 65.1 °F - 64.2 °F 97% 30.16 in 4.0 mi West 4.6 mph - 0.01 in   Clear
7:15 AM 65.1 °F - 64.8 °F 99% 30.16 in 3.0 mi Calm Calm - N/A   Clear
7:35 AM 67.8 °F - 66.2 °F 95% 30.16 in 5.0 mi Calm Calm - N/A   Clear
7:55 AM 68.4 °F - 66.7 °F 95% 30.17 in 5.0 mi Calm Calm - N/A   Scattered Clouds
8:15 AM 71.4 °F - 67.6 °F 88% 30.17 in 7.0 mi Calm Calm - N/A   Scattered Clouds
8:35 AM 71.2 °F - 68.0 °F 89% 30.17 in 7.0 mi SE 3.5 mph - N/A   Overcast
8:55 AM 71.6 °F - 68.0 °F 88% 30.18 in 7.0 mi South 4.6 mph - N/A   Overcast
9:15 AM 72.0 °F - 68.0 °F 87% 30.17 in 7.0 mi Calm Calm - N/A   Overcast
9:35 AM 72.5 °F - 68.4 °F 87% 30.18 in 7.0 mi Calm Calm - N/A   Mostly Cloudy
9:55 AM 73.8 °F - 67.6 °F 81% 30.17 in 10.0 mi Calm Calm - N/A   Mostly Cloudy
10:15 AM 75.2 °F - 68.2 °F 79% 30.17 in 10.0 mi Calm Calm - N/A   Overcast
10:35 AM 75.6 °F - 67.8 °F 77% 30.16 in 10.0 mi Calm Calm - N/A   Mostly Cloudy
10:55 AM 77.5 °F - 68.5 °F 74% 30.16 in 10.0 mi Calm Calm - N/A   Mostly Cloudy
11:15 AM 78.4 °F - 68.9 °F 72% 30.16 in 10.0 mi Calm Calm - N/A   Scattered Clouds
11:35 AM 78.8 °F - 67.6 °F 68% 30.16 in 10.0 mi Calm Calm - N/A   Scattered Clouds
11:55 AM 78.6 °F - 69.3 °F 73% 30.16 in 10.0 mi South 4.6 mph - N/A   Mostly Cloudy
12:15 PM 78.8 °F - 69.1 °F 72% 30.16 in 10.0 mi South 3.5 mph - N/A   Overcast
12:35 PM 79.2 °F - 68.9 °F 71% 30.15 in 10.0 mi South 4.6 mph - N/A   Mostly Cloudy
12:55 PM 79.2 °F - 68.4 °F 69% 30.14 in 10.0 mi South 4.6 mph - N/A   Overcast
1:15 PM 79.3 °F - 68.4 °F 69% 30.13 in 10.0 mi SSE 4.6 mph - 0.01 in   Overcast
1:35 PM 81.0 °F 84.1 °F 69.1 °F 67% 30.11 in 10.0 mi SSE 5.8 mph - 0.01 in   Mostly Cloudy
1:55 PM 81.9 °F 85.8 °F 70.2 °F 68% 30.10 in 10.0 mi SSE 6.9 mph - 0.01 in   Mostly Cloudy
2:15 PM 82.8 °F 86.2 °F 68.9 °F 63% 30.10 in 10.0 mi SSE 8.1 mph - N/A   Mostly Cloudy
2:35 PM 82.6 °F 86.4 °F 69.6 °F 65% 30.09 in 10.0 mi South 6.9 mph - N/A   Mostly Cloudy
2:55 PM 79.9 °F - 68.0 °F 67% 30.09 in 10.0 mi NW 8.1 mph - N/A Thunderstorm Thunderstorm
3:15 PM 70.2 °F - 67.1 °F 90% 30.09 in 10.0 mi NNW 12.7 mph 19.6 mph N/A Rain , Thunderstorm Light Thunderstorms and Rain
3:35 PM 68.4 °F - 67.1 °F 96% 30.12 in 1.5 mi WSW 6.9 mph - N/A Rain , Thunderstorm Heavy Thunderstorms and Rain
3:55 PM 68.4 °F - 67.8 °F 98% 30.12 in 0.5 mi West 8.1 mph - 0.01 in Rain , Thunderstorm Heavy Thunderstorms and Rain
4:15 PM 67.6 °F - 66.2 °F 95% 30.12 in 4.0 mi West 5.8 mph - 0.01 in Rain , Thunderstorm Heavy Thunderstorms and Rain
4:35 PM 68.5 °F - 67.3 °F 96% 30.12 in 4.0 mi Calm Calm - 0.03 in Rain , Thunderstorm Heavy Thunderstorms and Rain
4:55 PM 69.1 °F - 68.0 °F 96% 30.12 in 5.0 mi NE 3.5 mph - 0.04 in Rain Light Rain
5:15 PM 69.1 °F - 68.0 °F 96% 30.12 in 7.0 mi Calm Calm - 0.01 in Rain Light Rain
5:35 PM 68.5 °F - 67.8 °F 98% 30.12 in 7.0 mi Calm Calm - 0.02 in Rain Light Rain
5:55 PM 69.3 °F - 68.4 °F 97% 30.11 in 10.0 mi Calm Calm - 0.03 in   Overcast
6:15 PM 68.9 °F - 68.2 °F 98% 30.11 in 7.0 mi ENE 3.5 mph - 0.01 in   Overcast
6:35 PM 68.9 °F - 68.0 °F 97% 30.11 in 10.0 mi ENE 3.5 mph - 0.01 in Rain Light Rain
6:55 PM 69.4 °F - 68.4 °F 96% 30.11 in 10.0 mi Calm Calm - 0.02 in   Overcast
7:15 PM 69.8 °F - 68.7 °F 96% 30.11 in 10.0 mi East 3.5 mph - 0.01 in   Overcast
7:35 PM 69.8 °F - 68.9 °F 97% 30.11 in 10.0 mi East 4.6 mph - 0.02 in   Overcast
7:55 PM 70.0 °F - 68.9 °F 96% 30.12 in 10.0 mi SE 3.5 mph - 0.02 in   Overcast
8:15 PM 69.8 °F - 68.9 °F 97% 30.11 in 5.0 mi SE 3.5 mph - N/A Rain Light Rain
8:35 PM 69.6 °F - 68.7 °F 97% 30.12 in 10.0 mi SE 3.5 mph - 0.01 in   Overcast
8:55 PM 69.3 °F - 68.7 °F 98% 30.12 in 7.0 mi SSW 10.4 mph - 0.02 in Rain Rain
9:15 PM 69.1 °F - 68.7 °F 99% 30.12 in 4.0 mi ESE 5.8 mph - 0.01 in Rain Rain
9:35 PM 69.1 °F - 68.5 °F 98% 30.12 in 7.0 mi SE 4.6 mph - 0.02 in Rain Light Rain
9:55 PM 69.1 °F - 68.7 °F 99% 30.12 in 5.0 mi SE 4.6 mph - 0.03 in Rain Rain
10:15 PM 68.9 °F - 68.4 °F 98% 30.12 in 5.0 mi SE 5.8 mph - 0.01 in Rain Rain
10:35 PM 68.7 °F - 68.0 °F 98% 30.12 in 7.0 mi ESE 6.9 mph - 0.02 in Rain Light Rain
10:55 PM 68.7 °F - 68.0 °F 98% 30.12 in 10.0 mi SE 5.8 mph - 0.02 in   Overcast
11:15 PM 68.5 °F - 68.0 °F 98% 30.12 in 10.0 mi SSE 5.8 mph - N/A   Overcast
11:35 PM 68.5 °F - 68.0 °F 98% 30.12 in 10.0 mi SSE 9.2 mph - 0.01 in   Overcast
11:55 PM 68.5 °F - 67.8 °F 98% 30.11 in 7.0 mi South 8.1 mph - 0.02 in   Overcast